This is the latest recevied weather packets stored in our database for station/object OK2ILA-6. If no packets are shown the sender has not sent any weather packets the latest 10 day(s).
| Time | Temp. | Humidity | Pressure | Rain* | Wind** | Luminosity | Snow |
|---|---|---|---|---|---|---|---|
| 1777390203 | 13.89° C | 29% | 1021 hPa | - | - | - | - |
| 1777389603 | 13.89° C | 28% | 1021 hPa | - | - | - | - |
| 1777389003 | 14.44° C | 31% | 1021 hPa | - | - | - | - |
| 1777388403 | 14.44° C | 28% | 1021 hPa | - | - | - | - |
| 1777387803 | 14.44° C | 29% | 1021.2 hPa | - | - | - | - |
| 1777387203 | 14.44° C | 30% | 1021.4 hPa | - | - | - | - |
| 1777386603 | 14.44° C | 32% | 1021.4 hPa | - | - | - | - |
| 1777386003 | 14.44° C | 32% | 1021.3 hPa | - | - | - | - |
| 1777385403 | 14.44° C | 34% | 1021.4 hPa | - | - | - | - |
| 1777384802 | 14.44° C | 33% | 1021.6 hPa | - | - | - | - |
| 1777384203 | 14.44° C | 34% | 1021.6 hPa | - | - | - | - |
| 1777383603 | 14.44° C | 36% | 1021.6 hPa | - | - | - | - |
| 1777383003 | 14.44° C | 38% | 1021.7 hPa | - | - | - | - |
| 1777382403 | 14.44° C | 40% | 1021.8 hPa | - | - | - | - |
| 1777381803 | 14.44° C | 40% | 1021.8 hPa | - | - | - | - |
| 1777381203 | 14.44° C | 40% | 1021.9 hPa | - | - | - | - |
| 1777380603 | 13.89° C | 42% | 1021.8 hPa | - | - | - | - |
| 1777380003 | 14.44° C | 42% | 1022 hPa | - | - | - | - |
| 1777379403 | 14.44° C | 42% | 1021.8 hPa | - | - | - | - |
| 1777378803 | 14.44° C | 42% | 1022 hPa | - | - | - | - |
| 1777378203 | 14.44° C | 41% | 1022 hPa | - | - | - | - |
| 1777377603 | 14.44° C | 42% | 1022.2 hPa | - | - | - | - |
| 1777377003 | 13.89° C | 42% | 1022.1 hPa | - | - | - | - |
| 1777376403 | 14.44° C | 42% | 1022.3 hPa | - | - | - | - |
| 1777375802 | 13.89° C | 44% | 1022.2 hPa | - | - | - | - |
* Rain since midnight (hover to see other rain measurements)
** Current wind speed in m/s (hover to see current wind gust speed)